Weather History for Newport, AR

Change the Weather History Date:

Friday, May 17, 2013

  Actual Average (KJBR) Record (KJBR)
Temperature  
Mean Temperature 72 °F 69 °F  
Max Temperature 79 °F 80 °F 94 °F (1962)
Min Temperature 64 °F 59 °F 42 °F (1912)
Degree Days  
Heating Degree Days 0 1  
Month to date heating degree days 29  
Since 1 July heating degree days 3644  
Cooling Degree Days 6 5  
Month to date cooling degree days 63  
Year to date cooling degree days 110  
Growing Degree Days 22 (Base 50)    
Moisture  
Dew Point 67 °F    
Average Humidity 88    
Maximum Humidity 100    
Minimum Humidity 65    
Precipitation  
Precipitation 0.49 in 0.14 in 2.03 in (1920)
Month to date precipitation 2.96  
Year to date precipitation 19.63  
Snow  
Snow 0.00 in 0.00 in - ()
Month to date snowfall 0.0  
Since 1 July snowfall 4.8  
Snow Depth -    
Sea Level Pressure  
Sea Level Pressure 29.91 in    
Wind  
Wind Speed 6 mph (ESE)    
Max Wind Speed 13 mph    
Max Gust Speed -    
Visibility 8 miles    
Events Rain , Thunderstorm    
T = Trace of Precipitation, MM = Missing Value Source: NWS Daily Summary

Daily Weather History Graph

Daily Weather History Graph

Search for Another Location

Airport:

Trip Planner

Search our weather history database for the weather conditions in past years. The results will help you decide how hot, cold, wet, or windy it might be!

Date:

Astronomy

May. 17, 2013 Rise Set
Actual Time 5:58 AM CDT 8:04 PM CDT
Civil Twilight 5:29 AM CDT 8:33 PM CDT
Nautical Twilight 4:54 AM CDT 9:08 PM CDT
Astronomical Twilight 4:17 AM CDT 9:45 PM CDT
Moon 12:24 PM CDT (5/17) 1:02 AM CDT (5/17)
Length of Visible Light 15h 03m
Length of Day
14h 06m
Waxing Crescent, 45% of the Moon is Illuminated
May 17
Waxing Crescent
May 17
First Quarter
May 24
Full
May 31
Last Quarter
Jun 8
New

Hourly Weather History & Observations

Time (CDT) Temp. Dew Point Humidity Pressure Visibility Wind Dir Wind Speed Gust Speed Precip Events Conditions
12:56 AM 66.9 °F 64.9 °F 93% 29.90 in 10.0 mi SE 4.6 mph - N/A   Overcast
1:56 AM 66.9 °F 64.9 °F 93% 29.89 in 10.0 mi SE 6.9 mph - N/A   Overcast
2:12 AM 68.0 °F 64.4 °F 88% 29.90 in 10.0 mi SSE 11.5 mph - N/A Thunderstorm Overcast
2:27 AM 66.2 °F 66.2 °F 100% 29.89 in 4.0 mi SE 12.7 mph - 0.09 in Rain Rain
2:38 AM 66.2 °F 66.2 °F 100% 29.89 in 2.0 mi SE 5.8 mph - 0.26 in Rain Rain
2:44 AM 66.2 °F 66.2 °F 100% 29.88 in 2.0 mi ESE 4.6 mph - 0.32 in Rain Rain
2:56 AM 65.8 °F 65.8 °F 100% 29.88 in 2.0 mi East 4.6 mph - 0.40 in Rain Rain
3:04 AM 66.2 °F 66.2 °F 100% 29.87 in 3.0 mi East 8.1 mph - 0.04 in Rain Rain
3:25 AM 66.2 °F 66.2 °F 100% 29.87 in 4.0 mi East 8.1 mph - 0.09 in Rain Light Rain
3:33 AM 66.2 °F 66.2 °F 100% 29.87 in 10.0 mi East 6.9 mph - 0.09 in Rain Light Rain
3:44 AM 66.2 °F 66.2 °F 100% 29.87 in 10.0 mi ESE 10.4 mph - 0.09 in   Overcast
3:56 AM 65.8 °F 65.8 °F 100% 29.86 in 10.0 mi ESE 11.5 mph - 0.09 in   Overcast
4:56 AM 66.9 °F 66.9 °F 100% 29.88 in 10.0 mi SE 10.4 mph - 0.00 in   Overcast
6:31 AM 66.2 °F 66.2 °F 100% 29.89 in 10.0 mi SSE 8.1 mph - 0.00 in   Overcast
6:56 AM 65.8 °F 65.8 °F 100% 29.89 in 10.0 mi SE 6.9 mph - 0.00 in   Overcast
7:38 AM 66.2 °F 66.2 °F 100% 29.90 in 2.5 mi SSE 5.8 mph - N/A   Overcast
7:56 AM 64.9 °F 64.9 °F 100% 29.90 in 1.8 mi SSE 5.8 mph - N/A   Overcast
8:04 AM 66.2 °F 66.2 °F 100% 29.91 in 2.5 mi SSE 5.8 mph - N/A   Overcast
8:15 AM 66.2 °F 66.2 °F 100% 29.91 in 3.0 mi South 8.1 mph - N/A   Overcast
9:56 AM 68.0 °F 68.0 °F 100% 29.91 in 10.0 mi SSW 5.8 mph - N/A   Overcast
10:21 AM 69.8 °F 68.0 °F 94% 29.92 in 10.0 mi South 4.6 mph - N/A   Overcast
10:56 AM 70.0 °F 68.0 °F 93% 29.92 in 10.0 mi West 4.6 mph - N/A   Overcast
11:24 AM 73.4 °F 68.0 °F 83% 29.93 in 10.0 mi WNW 4.6 mph - N/A   Overcast
11:56 AM 72.0 °F 66.9 °F 84% 29.94 in 10.0 mi West 4.6 mph - N/A   Overcast
12:10 PM 71.6 °F 66.2 °F 83% 29.94 in 10.0 mi NW 5.8 mph - N/A   Overcast
12:56 PM 72.9 °F 68.0 °F 85% 29.93 in 10.0 mi NNW 4.6 mph - N/A   Overcast
1:09 PM 73.4 °F 68.0 °F 83% 29.93 in 10.0 mi North 5.8 mph - N/A   Overcast
1:44 PM 73.4 °F 68.0 °F 83% 29.93 in 10.0 mi North 3.5 mph - N/A   Overcast
1:56 PM 73.9 °F 68.0 °F 82% 29.93 in 10.0 mi North 4.6 mph - N/A   Overcast
2:13 PM 75.2 °F 66.2 °F 73% 29.93 in 10.0 mi Calm Calm - N/A   Overcast
2:45 PM 77.0 °F 68.0 °F 74% 29.92 in 10.0 mi Variable 6.9 mph - N/A   Overcast
2:56 PM 77.0 °F 68.0 °F 74% 29.92 in 10.0 mi North 4.6 mph - N/A   Overcast
3:04 PM 77.0 °F 66.2 °F 69% 29.92 in 10.0 mi Variable 4.6 mph - N/A   Mostly Cloudy
3:56 PM 77.9 °F 68.0 °F 71% 29.91 in 10.0 mi North 5.8 mph - N/A   Mostly Cloudy
4:04 PM 78.8 °F 68.0 °F 69% 29.91 in 10.0 mi Variable 3.5 mph - N/A   Mostly Cloudy
4:56 PM 77.9 °F 66.9 °F 69% 29.90 in 10.0 mi Calm Calm - N/A   Mostly Cloudy
5:14 PM 78.8 °F 66.2 °F 65% 29.91 in 10.0 mi Calm Calm - N/A   Mostly Cloudy
5:40 PM 78.8 °F 66.2 °F 65% 29.91 in 10.0 mi NW 4.6 mph - N/A   Partly Cloudy
5:56 PM 79.0 °F 66.9 °F 66% 29.91 in 10.0 mi Calm Calm - N/A   Mostly Cloudy
6:56 PM 77.9 °F 65.8 °F 66% 29.91 in 10.0 mi Calm Calm - N/A   Partly Cloudy
7:45 PM 77.0 °F 68.0 °F 74% 29.92 in 2.5 mi Calm Calm - N/A   Haze
7:56 PM 75.9 °F 68.0 °F 76% 29.92 in 10.0 mi Calm Calm - N/A   Clear
8:56 PM 72.9 °F 70.0 °F 91% 29.92 in 10.0 mi ENE 3.5 mph - N/A   Clear
9:56 PM 70.9 °F 70.0 °F 97% 29.94 in 10.0 mi East 5.8 mph - 0.00 in   Clear
10:56 PM 70.0 °F 68.9 °F 96% 29.95 in 10.0 mi Calm Calm - N/A   Clear
11:56 PM 70.0 °F 68.0 °F 93% 29.96 in 10.0 mi ESE 3.5 mph - 0.00 in   Partly Cloudy